TimeCDT,TemperatureF,Dew PointF,Humidity,Sea Level PressureIn,VisibilityMPH,Wind Direction,Wind SpeedMPH,Gust SpeedMPH,PrecipitationIn,Events,Conditions,WindDirDegrees,DateUTC
12:52 AM,50.0,39.0,66,30.03,10.0,NNE,5.8,-,N/A,,Scattered Clouds,20,2013-10-21 05:52:00
1:52 AM,50.0,39.0,66,30.04,10.0,NNE,4.6,-,N/A,,Overcast,20,2013-10-21 06:52:00
2:52 AM,48.0,39.0,71,30.06,10.0,NNE,6.9,-,N/A,,Overcast,20,2013-10-21 07:52:00
3:52 AM,46.9,39.0,74,30.09,10.0,Calm,Calm,-,N/A,,Overcast,0,2013-10-21 08:52:00
4:52 AM,44.1,37.0,76,30.10,10.0,North,3.5,-,N/A,,Clear,10,2013-10-21 09:52:00
5:52 AM,41.0,37.0,86,30.12,10.0,North,3.5,-,N/A,,Clear,360,2013-10-21 10:52:00
6:52 AM,39.0,37.0,93,30.14,10.0,Calm,Calm,-,N/A,,Clear,0,2013-10-21 11:52:00
7:52 AM,37.9,37.0,97,30.14,10.0,Calm,Calm,-,N/A,,Clear,0,2013-10-21 12:52:00
8:52 AM,39.0,37.0,93,30.16,10.0,Calm,Calm,-,N/A,,Clear,0,2013-10-21 13:52:00
9:52 AM,44.1,37.9,79,30.17,10.0,NE,4.6,-,N/A,,Clear,40,2013-10-21 14:52:00
10:52 AM,48.9,32.0,52,30.16,10.0,Variable,3.5,-,N/A,,Clear,0,2013-10-21 15:52:00
11:52 AM,51.1,30.9,46,30.14,10.0,ENE,5.8,-,N/A,,Clear,60,2013-10-21 16:52:00
12:52 PM,53.1,30.9,43,30.13,10.0,Variable,5.8,-,N/A,,Clear,0,2013-10-21 17:52:00
1:52 PM,55.9,32.0,40,30.09,10.0,WSW,8.1,-,N/A,,Clear,250,2013-10-21 18:52:00
2:52 PM,57.9,33.1,39,30.07,10.0,West,8.1,-,N/A,,Clear,260,2013-10-21 19:52:00
3:52 PM,60.1,35.1,39,30.05,10.0,West,9.2,-,N/A,,Partly Cloudy,260,2013-10-21 20:52:00
4:52 PM,59.0,36.0,42,30.04,10.0,West,8.1,-,N/A,,Mostly Cloudy,260,2013-10-21 21:52:00
5:52 PM,57.9,37.0,46,30.03,10.0,WSW,5.8,-,N/A,,Clear,240,2013-10-21 22:52:00
6:52 PM,50.0,37.9,63,30.03,10.0,WSW,3.5,-,N/A,,Clear,240,2013-10-21 23:52:00
7:52 PM,45.0,39.0,80,30.04,10.0,Calm,Calm,-,N/A,,Clear,0,2013-10-22 00:52:00
8:52 PM,42.1,39.0,89,30.04,10.0,Calm,Calm,-,N/A,,Clear,0,2013-10-22 01:52:00
9:52 PM,39.9,39.0,97,30.02,10.0,Calm,Calm,-,N/A,,Clear,0,2013-10-22 02:52:00
10:52 PM,39.9,37.9,93,30.01,10.0,Calm,Calm,-,N/A,,Clear,0,2013-10-22 03:52:00
11:52 PM,41.0,39.9,96,30.00,10.0,Calm,Calm,-,N/A,,Clear,0,2013-10-22 04:52:00